WORLDVIEW-2 (WV-2)

Last updated on Wed Sep 09 2026 00:02:45 GMT+0000 (Coordinated Universal Time)

1 35946U 09055A 26251.52726856 .00000049 00000+0 30803-4 0 9993 2 35946 98.4730 323.8336 0003897 349.9726 10.1383 14.37918744887620
UTC large
Height (km)
Speed (km/s)
/
Latitude / Longitude
Inclination (degrees)
Orbital Period (minutes)
Azimuth
Elevation
Range (km)
Doppler Factor

Next 0 passes for location: London (51.5072 / 0.1276)

No passes found over London.
WORLDVIEW-2 (WV-2)